Regional Weather Roundup
Issued by NWS

Home | Current Version | Previous Version | Text Only | Print | Product List | Glossary On
Versions: 1 2 3 4 5 6 7 8 9 10 11 12 13 14 15 16 17 18 19 20 21 22 23 24 25 26 27 28 29 30 31 32 33 34 35 36 37 38 39 40 41 42 43 44 45 46 47 48 49 50
955
ASUS43 KOAX 291910
RWRNE

WEATHER ROUNDUP FOR NEBRASKA
NATIONAL WEATHER SERVICE OMAHA NE
200 PM CDT FRI JUL 29 2016

NOTES: SATELLITE DATA IS BEING USED TO AUGMENT CLOUD COVER ABOVE
       12000 FEET.
       "FAIR" INDICATES FEW OR NO CLOUDS BELOW 12,000 FEET WITH NO
       SIGNIFICANT WEATHER AND/OR OBSTRUCTIONS TO VISIBILITY.

  * THESE STATIONS DO NOT REPORT WEATHER SUCH AS RAIN...SNOW OR FOG.

NEZ001>004-019>022-054>056-292000-
NEBRASKA PANHANDLE

CITY           SKY/WX    TMP DP  RH WIND       PRES   REMARKS
SCOTTSBLUFF    SUNNY     82  59  45 E13       30.11F
ALLIANCE       PTSUNNY   77  58  51 S9        30.12F
CHADRON        SUNNY     84  55  36 VRB3      30.07F
KIMBALL        MOSUNNY   79  58  49 S10       30.18F
SIDNEY         PTSUNNY   80  57  45 S10G23    30.16F
$$

NEZ057>060-069>072-079>082-292000-
SOUTHWEST NEBRASKA

CITY           SKY/WX    TMP DP  RH WIND       PRES   REMARKS
NORTH PLATTE   MOSUNNY   79  63  57 W3        30.11F
IMPERIAL       PTSUNNY   76  60  57 MISG      30.13F
LEXINGTON      MOSUNNY   77  64  63 N5        30.10F
MCCOOK         CLOUDY    79  61  53 N3        30.10F
OGALLALA       MOSUNNY   80  59  49 SE6       30.12F
$$

NEZ005>010-023>029-035>040-094-292000-
NORTH CENTRAL NEBRASKA

CITY           SKY/WX    TMP DP  RH WIND       PRES   REMARKS
VALENTINE      SUNNY     75  57  53 CALM      30.10F
AINSWORTH      MOSUNNY   73  62  68 CALM      30.12F
BROKEN BOW     MOSUNNY   71  64  78 CALM      30.11F
O`NEILL        SUNNY     75  56  51 CALM      30.11F
ORD            CLOUDY    73  60  63 CALM      30.09F
THEDFORD       PTSUNNY   75  61  60 S6        30.13F
$$

NEZ041-046>049-061>064-073>077-083>087-292000-
SOUTH CENTRAL NEBRASKA

CITY           SKY/WX    TMP DP  RH WIND       PRES   REMARKS
GRAND ISLAND   CLOUDY    78  63  59 N6        30.09F
AURORA         CLOUDY    72  67  85 NE9       30.08S
HASTINGS       CLOUDY    78  62  57 N7        30.09F
HEBRON         MOSUNNY   81  60  48 N6        30.05F
HOLDREGE       SUNNY     78  61  55 N3        30.09F
KEARNEY *      CLOUDY    73  66  78 NE3       30.10F
YORK           MOSUNNY   75  64  69 N6        30.07F
$$

NEZ011>018-030>034-042>045-292000-
NORTHEAST NEBRASKA

CITY           SKY/WX    TMP DP  RH WIND       PRES   REMARKS
NORFOLK        PTSUNNY   77  55  46 MISG      30.07F
ALBION         MOSUNNY   76  58  53 NE7       30.08F
BLAIR          MOSUNNY   78  61  56 N7        30.05S
FREMONT        SUNNY     78  57  48 N3        30.06S
TEKAMAH        PTSUNNY   78  59  51 N9        30.04F
WAYNE          MOSUNNY   77  62  59 NE9       30.08F
$$

NEZ050>053-065>068-078-088>093-292000-
SOUTHEAST NEBRASKA

CITY           SKY/WX    TMP DP  RH WIND       PRES   REMARKS
LINCOLN        MOSUNNY   80  65  59 N9        30.06F
OMAHA EPPLEY   MOSUNNY   80  61  52 N8        30.03F
BEATRICE       LGT RAIN  73  67  79 CALM      30.06S
FALLS CITY     PTSUNNY   80  64  58 N6        30.02F
NEBRASKA CITY  PTSUNNY   76  62  62 N7        30.05F
PLATTSMOUTH    PTSUNNY   76  61  58 NW3       30.05S
$$

NEZ044-045-051>053-067-292000-
OMAHA AREA

CITY           SKY/WX    TMP DP  RH WIND       PRES   REMARKS
OMAHA EPPLEY   MOSUNNY   80  61  52 N8        30.03F
BLAIR          MOSUNNY   78  61  56 N7        30.05S
FREMONT        SUNNY     78  57  48 N3        30.06S
MILLARD        PTSUNNY   79  59  49 NW9       30.03F
OFFUTT AFB     MOSUNNY   80  59  50 N8        30.03F
PLATTSMOUTH    PTSUNNY   76  61  58 NW3       30.05S
WAHOO          MOCLDY    77  61  57 N6        30.05F
$$




USA.gov is the U.S. government's official web portal to all federal, state and local government web resources and services.